Powrót do katalogu

FENGYUN 1C DEB

AktywnySSO
NORAD 31634·DEBRIS·🇨🇳 China

Wystrzelony May 10, 1999 z Taiyuan Satellite Launch Center

Loading…

Następne Przeloty (najbliższe 24 godziny)

TLE

ŚwieżeSource: Space-Track

Epoka: Sep 11, 2026, 20:52 UTC

1 31634U 99025CAQ 26254.86976875  .00000493  00000-0  38689-3 0  9990
2 31634  99.3330 309.8692 0092210 137.6234 223.2096 13.94881114603310

Śledź FENGYUN 1C DEB w czasie rzeczywistym z AllMySat

Download on the App Store